Cloud_Cover
100 100 99 3 4 0 0 1 5 35 7 5 7 5 5 9 82 70 86 0 0 32
100 100 100 12 5 1 63 0 98 70 50 5 5 14 36 3 5 23 97 2 0 0
100 100 100 64 2 7 31 6 73 48 100 90 8 98 63 5 5 30 36 13 64 3
100 100 100 100 100 100 100 99 73 12 15 100 70 98 60 5 5 24 51 8 79 100
100 100 100 100 100 100 100 100 100 11 5 5 53 72 27 2 5 11 82 6 5 44
100 100 100 100 100 100 100 100 100 91 38 75 62 27 4 4 4 7 85 60 3 31
100 100 100 100 100 100 100 100 100 100 100 99 100 5 2 0 5 5 21 5 0 1
100 100 100 100 100 97 98 100 100 100 100 100 96 71 88 4 3 2 3 0 0 0
100 100 100 100 100 95 100 95 100 97 100 100 100 5 48 9 5 5 5 5 0 0
100 100 100 100 100 100 100 100 100 100 100 100 100 100 13 100 15 17 8 10 0 0
100 100 100 100 100 100 100 100 100 100 100 100 100 100 99 6 5 5 38 37 0 3
100 100 100 100 100 100 100 100 100 100 100 100 100 100 100 96 6 4 5 9 0 5
100 100 100 100 100 100 100 100 100 100 100 100 100 100 100 100 98 35 11 95 38 1
100 81 100 100 100 100 100 100 100 100 100 100 100 100 100 100 48 90 100 98 66 27